COSMOS 2251 DEB, 34861

Orbit data source: Space-Track

COSMOS 2251 DEB, 34861 is space debris in LEO originally from a launch on Wed, 16 Jun 1993 UTC launched from the Plesetsk Missile And Space Complex (PKMTR). The debris from Iridium 33, an American commercial communications satellite, has been tracked extensively since its accidental collision with the defunct Russian satellite Cosmos 2251 in 2009. This event, occurring at high speed in low Earth orbit (LEO), generated thousands of pieces of space debris, significantly increasing the risk of further collisions. The Iridium 33 debris cloud has impacted space traffic management and orbital debris mitigation strategies, making it a subject of ongoing study in space situational awareness.

Loading next visibility...
Identifier
34861, 1993-036ACF
Orbit
LEO
Country
Flag of CISCIS
Related business
Manufacturer
Unknown
Mission
Spacecraft
Bus & Motor
Unknown
Mass
Unknown
Launch date (UTC)
1993-06-16 (33 years ago)
Launch vehicle
Unknown
Launch site
Plesetsk Missile And Space Complex (PKMTR)
Object type
Payload
Rocket body
Debris
Shape & HBR
Unknown shape, 0.1 m
Radar Cross Section
Small (<0.1 m²)

Expand to show TLE details & history
Last TLE update: 9 hours ago

TLE from 9 hours ago
0 COSMOS 2251 DEB
1 34861U 93036ACF 25355.16778509  .00019631  00000-0  14553-2 0  9996
2 34861  74.0181  33.6281 0007995  23.2733  33.2234 15.03034303882195
Epoch: 2025-12-21T04:01Z
TLE epoch observation values (Epoch: 2025-12-21T04:01:36.631Z)
Latitude
53.44217°
Longitude
-94.16933°
Altitude
561.326 km
Speed
7.589 km/s
True Right ascension
03h 44m 52s
True Declination
53° 16' 22"
Sunlit
Object was in full shadow at epoch
Visualization orbit readout
Latitude
Unknown
Longitude
Unknown
Altitude
Unknown
Speed
Unknown
Apparent Right ascension
Unknown
Apparent Declination
Unknown
Sunlit
N/A
Visualization observer readout
Local Sidereal Time
11:41:48
Azimuth
Unknown
Elevation
Unknown
Doppler factor
Unknown
Orbital elements
Apogee altitude
560.641 km
Perigee altitude
549.555 km
Semi-major axis
6,933.235 km
Eccentricity
0.0008
Inclination
74.0181°
RAAN
33.6281°
Arg. of periapsis
23.2733°
True anomaly
33.27364°
Mean anomaly
33.2234°
Eccentric anomaly
33.24852°
Mean motion
3.75958 °/min
Orbital period
95.76 mins
BSTAR
0.0014553
Loading maneuver chart data...
Computing Atmospheric mass density...
Loading historical data...
Loading historical data...
Loading historical data...
Loading historical data...
Loading historical data...
Loading historical data...
Loading historical data...

Documentation

Showing up to 5 results
|